Location: Northcutt
(34.7304°N, 84.4305°W)
Time: 16:56:21
(UTC+00:00)

Vanguard 1 Rocket - Visible Passes

Search period start: 26 September 2022 00:00
Search period end: 06 October 2022 00:00
Orbit: 651 x 4224 km, 34.3° (Epoch: 25 September)

Date Brightness Start Highest point End Pass type
(mag) Time Alt. Az. Time Alt. Az. Time Alt. Az.
26 Sep 9.3 01:27:06 10° SW 01:44:48 46° SSE 01:47:06 42° SE visible
26 Sep 10.3 03:58:39 10° WSW 04:04:24 26° WSW 04:04:24 26° WSW visible
27 Sep 9.9 00:13:15 10° SSW 00:31:38 35° SSE 00:40:05 19° E visible
27 Sep 9.3 02:43:26 10° WSW 02:57:23 56° SSW 02:57:23 56° SSW visible
28 Sep 9.2 01:28:17 10° SW 01:47:26 55° SSE 01:50:19 48° ESE visible
28 Sep 10.2 04:00:59 10° WSW 04:07:36 29° WSW 04:07:36 29° WSW visible
29 Sep 9.9 00:13:46 10° SW 00:34:11 44° SSE 00:43:12 21° E visible
29 Sep 9.2 02:45:25 10° WSW 03:00:30 64° SW 03:00:30 64° SW visible
30 Sep 9.1 01:29:46 10° SW 01:50:01 64° SSE 01:53:20 52° ESE visible
30 Sep 10.2 04:03:22 10° W 04:10:38 31° W 04:10:38 31° W visible
01 Oct 9.9 00:14:42 10° SW 00:36:40 53° SSE 00:46:09 22° E visible
01 Oct 9.2 02:47:32 10° WSW 03:03:26 69° WSW 03:03:26 69° WSW visible
02 Oct 9.1 01:31:30 10° WSW 01:52:34 73° SSE 01:56:12 55° E visible
02 Oct 10.2 04:05:47 10° W 04:13:28 32° W 04:13:28 32° W visible
03 Oct 9.9 00:15:58 10° SW 00:39:06 62° SSE 00:48:55 23° E visible
03 Oct 9.2 02:49:46 10° W 03:06:11 71° WSW 03:06:11 71° WSW visible
03 Oct 11.0 05:23:27 10° W 05:23:28 10° W 05:23:28 10° W visible
04 Oct 9.1 01:33:26 10° WSW 01:55:08 79° SSE 01:58:53 57° E visible
04 Oct 10.2 04:08:13 10° W 04:16:09 32° W 04:16:09 32° W visible
05 Oct 9.9 00:17:30 10° SW 00:41:31 70° SSE 00:51:32 25° E visible
05 Oct 9.3 02:52:05 10° W 03:08:47 71° W 03:08:47 71° W visible
05 Oct 11.1 05:25:55 10° W 05:26:04 10° W 05:26:04 10° W visible
05 Oct 10.5 23:02:32 10° SW 23:27:21 58° SSE 23:43:02 10° E visible
